Weather History for KLWT - May, 2013

Change the Weather History Date:

Friday, May 3, 2013

  Actual Average Record
Temperature  
Mean Temperature 42 °F 46 °F  
Max Temperature 51 °F 59 °F 82 °F (1918)
Min Temperature 33 °F 33 °F 16 °F (1954)
Degree Days  
Heating Degree Days 23 19  
Month to date heating degree days 82 57  
Since 1 July heating degree days 7495 7564  
Cooling Degree Days 0 0  
Month to date cooling degree days 0 0  
Year to date cooling degree days 0 0  
Moisture  
Dew Point 36 °F    
Average Humidity 66    
Maximum Humidity 96    
Minimum Humidity 36    
Precipitation  
Precipitation 0.14 in 0.07 in 1.61 in (1964)
Month to date precipitation 0.14 0.20  
Year to date precipitation 3.50 3.61  
Snow  
Snow 0.00 in - - ()
Snow Depth 0.00 in    
Sea Level Pressure  
Sea Level Pressure 30.22 in    
Wind  
Wind Speed 8 mph (WNW)    
Max Wind Speed 18 mph    
Max Gust Speed 30 mph    
Visibility 10 miles    
Events Rain    
T = Trace of Precipitation, MM = Missing Value Source: NWS Daily Summary

Daily Weather History Graph

Daily Weather History Graph

Search for Another Location

Airport or City:

Trip Planner

Search our weather history database for the weather conditions in past years. The results will help you decide how hot, cold, wet, or windy it might be!

Date:

Astronomy

May. 03, 2013 Rise Set
Actual Time 5:58 AM MDT 8:31 PM MDT
Civil Twilight 5:24 AM MDT 9:06 PM MDT
Nautical Twilight 4:41 AM MDT 9:49 PM MDT
Astronomical Twilight 3:51 AM MDT 10:39 PM MDT
Moon 2:49 AM MDT (5/3) 2:06 PM MDT (5/3)
Length of Visible Light 15h 41m
Length of Day
14h 33m
Last Quarter, 36% of the Moon is Illuminated
May 3
Last Quarter
May 9
New
May 17
First Quarter
May 24
Full
May 31
Last Quarter

Hourly Weather History & Observations

Time (MDT) Temp. Windchill Dew Point Humidity Pressure Visibility Wind Dir Wind Speed Gust Speed Precip Events Conditions
12:54 AM 34.0 °F 28.8 °F 21.9 °F 61% 30.24 in 10.0 mi ESE 5.8 mph - N/A   Clear
1:54 AM 36.0 °F 31.1 °F 21.9 °F 57% 30.20 in 10.0 mi SSE 5.8 mph - N/A   Clear
2:54 AM 37.0 °F 34.5 °F 21.9 °F 54% 30.19 in 10.0 mi SSE 3.5 mph - N/A   Clear
3:54 AM 35.1 °F 31.0 °F 21.0 °F 57% 30.19 in 10.0 mi SE 4.6 mph - N/A   Clear
4:54 AM 36.0 °F 31.1 °F 21.0 °F 55% 30.19 in 10.0 mi SSE 5.8 mph - N/A   Clear
5:54 AM 36.0 °F 29.0 °F 21.9 °F 57% 30.19 in 10.0 mi SW 9.2 mph - N/A   Clear
6:54 AM 41.0 °F 39.0 °F 25.0 °F 53% 30.17 in 10.0 mi South 3.5 mph - N/A   Clear
7:54 AM 42.1 °F 38.4 °F 28.0 °F 58% 30.18 in 10.0 mi WSW 5.8 mph - N/A   Partly Cloudy
8:54 AM 50.0 °F - 25.0 °F 38% 30.17 in 10.0 mi Variable 4.6 mph - N/A   Overcast
9:54 AM 48.9 °F - 28.9 °F 46% 30.20 in 10.0 mi NW 10.4 mph 20.7 mph N/A   Mostly Cloudy
10:54 AM 48.9 °F - 36.0 °F 61% 30.23 in 10.0 mi WNW 12.7 mph 19.6 mph N/A   Overcast
11:54 AM 48.9 °F - 37.0 °F 64% 30.24 in 10.0 mi NNW 11.5 mph 17.3 mph 0.00 in Rain Light Rain
12:54 PM 48.0 °F - 41.0 °F 77% 30.25 in 10.0 mi NNW 10.4 mph 17.3 mph 0.00 in Rain Light Rain
1:54 PM 48.9 °F - 39.9 °F 71% 30.23 in 10.0 mi NW 12.7 mph 20.7 mph 0.00 in Rain Light Rain
2:31 PM 44.6 °F 38.4 °F 42.8 °F 93% 30.21 in 9.0 mi NW 12.7 mph - 0.00 in Rain Light Rain
2:44 PM 44.6 °F 40.2 °F 42.8 °F 93% 30.21 in 2.5 mi NW 8.1 mph - 0.04 in Rain Rain
2:54 PM 45.0 °F 41.2 °F 43.0 °F 93% 30.25 in 6.0 mi NW 6.9 mph - 0.04 in Rain Light Rain
3:01 PM 46.4 °F 42.4 °F 42.8 °F 87% 30.21 in 10.0 mi NW 8.1 mph - 0.01 in Rain Light Rain
3:15 PM 46.4 °F 41.1 °F 42.8 °F 87% 30.21 in 10.0 mi NW 11.5 mph - 0.01 in Rain Light Rain
3:34 PM 46.4 °F 41.5 °F 42.8 °F 87% 30.21 in 10.0 mi NW 10.4 mph 21.9 mph 0.01 in Rain Light Rain
3:39 PM 46.4 °F 41.5 °F 42.8 °F 87% 30.21 in 10.0 mi NW 10.4 mph 21.9 mph 0.01 in Rain Light Rain
3:52 PM 46.4 °F 41.1 °F 42.8 °F 87% 30.20 in 10.0 mi NW 11.5 mph - 0.02 in Rain Light Rain
3:54 PM 46.0 °F 41.0 °F 42.1 °F 86% 30.24 in 10.0 mi NW 10.4 mph - 0.02 in Rain Light Rain
4:07 PM 46.4 °F 41.9 °F 42.8 °F 87% 30.20 in 10.0 mi NW 9.2 mph - 0.00 in Rain Light Rain
4:54 PM 46.0 °F 39.9 °F 39.9 °F 79% 30.24 in 10.0 mi NNW 13.8 mph - 0.00 in Rain Light Rain
5:07 PM 46.4 °F 41.5 °F 41.0 °F 81% 30.20 in 10.0 mi NNW 10.4 mph - 0.00 in Rain Light Rain
5:54 PM 46.0 °F 40.6 °F 42.1 °F 86% 30.25 in 10.0 mi WNW 11.5 mph - 0.00 in Rain Light Rain
6:54 PM 44.1 °F 39.5 °F 39.9 °F 85% 30.24 in 10.0 mi WNW 8.1 mph - 0.00 in Rain Light Rain
7:54 PM 44.1 °F 40.8 °F 41.0 °F 89% 30.25 in 10.0 mi WNW 5.8 mph - 0.01 in Rain Light Rain
8:54 PM 43.0 °F 38.2 °F 41.0 °F 93% 30.23 in 10.0 mi WNW 8.1 mph - 0.01 in Rain Light Rain
9:13 PM 42.8 °F 39.3 °F 41.0 °F 93% 30.24 in 10.0 mi WNW 5.8 mph - 0.00 in Rain Light Rain
9:30 PM 42.8 °F 38.6 °F 41.0 °F 93% 30.24 in 10.0 mi WNW 6.9 mph - 0.00 in Rain Light Rain
9:45 PM 42.8 °F 39.3 °F 41.0 °F 93% 30.24 in 10.0 mi WNW 5.8 mph - 0.01 in Rain Light Rain
9:54 PM 42.1 °F 37.7 °F 41.0 °F 96% 30.25 in 10.0 mi WNW 6.9 mph - 0.01 in Rain Light Rain
10:54 PM 42.1 °F 37.7 °F 41.0 °F 96% 30.25 in 9.0 mi West 6.9 mph - 0.02 in Rain Light Rain
11:54 PM 42.1 °F 38.4 °F 41.0 °F 96% 30.25 in 7.0 mi WNW 5.8 mph - 0.02 in Rain Light Rain